This is the latest recevied weather packets stored in our database for station/object KQ4JKJ. If no packets are shown the sender has not sent any weather packets the latest 10 day(s).
| Time | Temp. | Humidity | Pressure | Rain* | Wind** | Luminosity | Snow |
|---|---|---|---|---|---|---|---|
| 1777999354 | 28.33° C | 56% | 1011.3 hPa | 0 mm | - | 748 W/m² | - |
| 1777999052 | 28.33° C | 54% | 1011 hPa | 0 mm | - | 806 W/m² | - |
| 1777998750 | 27.78° C | 57% | 1011 hPa | 0 mm | - | 471 W/m² | - |
| 1777998447 | 27.78° C | 56% | 1011.1 hPa | 0 mm | - | 213 W/m² | - |
| 1777998144 | 28.33° C | 55% | 1011.2 hPa | 0 mm | - | 724 W/m² | - |
| 1777997841 | 28.33° C | 54% | 1011.2 hPa | 0 mm | - | 689 W/m² | - |
| 1777997539 | 27.78° C | 58% | 1011.2 hPa | 0 mm | - | 786 W/m² | - |
| 1777997236 | 27.22° C | 58% | 1011.3 hPa | 0 mm | - | 753 W/m² | - |
| 1777996934 | 27.78° C | 58% | 1011.3 hPa | 0 mm | - | 246 W/m² | - |
| 1777996630 | 28.33° C | 58% | 1011.3 hPa | 0 mm | - | 715 W/m² | - |
| 1777996326 | 27.78° C | 59% | 1011 hPa | 0 mm | - | 737 W/m² | - |
| 1777996022 | 27.78° C | 57% | 1011.1 hPa | 0 mm | - | 716 W/m² | - |
| 1777995718 | 28.33° C | 57% | 1011.2 hPa | 0 mm | - | 692 W/m² | - |
| 1777995415 | 28.33° C | 59% | 1011.2 hPa | 0 mm | - | 710 W/m² | - |
| 1777995112 | 28.33° C | 58% | 1011.3 hPa | 0 mm | - | 706 W/m² | - |
| 1777994809 | 27.78° C | 55% | 1011.1 hPa | 0 mm | - | 685 W/m² | - |
| 1777994505 | 27.78° C | 59% | 1011.1 hPa | 0 mm | - | 677 W/m² | - |
| 1777994200 | 27.78° C | 58% | 1011.3 hPa | 0 mm | - | 678 W/m² | - |
| 1777993898 | 27.78° C | 60% | 1011.1 hPa | 0 mm | - | 679 W/m² | - |
| 1777993594 | 27.22° C | 62% | 1010.8 hPa | 0 mm | - | 654 W/m² | - |
| 1777993291 | 27.22° C | 62% | 1010.9 hPa | 0 mm | - | 642 W/m² | - |
| 1777992986 | 27.22° C | 60% | 1010.9 hPa | 0 mm | - | 637 W/m² | - |
| 1777992685 | 27.22° C | 62% | 1010.8 hPa | 0 mm | - | 638 W/m² | - |
| 1777992383 | 27.78° C | 60% | 1010.9 hPa | 0 mm | - | 572 W/m² | - |
| 1777992080 | 27.22° C | 60% | 1010.8 hPa | 0 mm | - | 591 W/m² | - |
* Rain latest hour (hover to see other rain measurements)
** Current wind speed in m/s (hover to see current wind gust speed)